Temp
53 55 53 52 52 50 46 46 45 44 40 40 39 40 40 41 46 46 45 44 43 41 43 41 40 39 38 36 37 39 40 43 40 38 39 40 39 39 40 41 39 39 40
53 53 52 51 51 49 46 46 45 42 41 39 38 38 38 39 43 44 41 42 41 40 40 39 37 36 35 35 36 37 39 39 39 35 37 37 37 39 39 37 37 37 38
52 51 50 50 49 49 47 46 45 43 40 37 37 37 37 38 39 43 42 42 42 41 40 39 37 34 31 33 36 37 37 34 36 34 34 35 36 38 36 37 37 37 37
50 49 49 49 48 47 44 42 43 42 39 37 37 37 37 37 37 40 41 41 41 40 40 38 35 32 31 33 34 35 34 33 32 31 32 33 35 36 34 32 32 38 37
48 48 48 47 47 45 41 40 40 39 38 37 36 36 36 36 36 36 39 38 39 38 37 35 33 32 33 35 34 34 33 32 31 30 31 33 33 32 30 34 31 33 35
47 46 46 44 42 40 38 37 36 36 35 35 34 34 34 35 39 39 39 37 36 36 34 33 32 30 33 35 35 36 34 30 29 31 32 30 31 32 33 31 30 28 27
42 41 41 40 39 38 36 35 34 34 35 33 34 33 33 34 38 39 37 37 36 36 34 32 31 32 32 34 36 36 35 35 35 33 29 31 31 33 33 30 29 29 29
39 38 38 38 37 37 35 35 34 34 33 33 33 33 33 33 39 38 36 35 36 35 32 31 30 33 32 31 31 31 33 34 34 34 33 32 34 35 33 31 29 29 29
38 38 37 37 35 35 34 34 34 33 32 33 32 31 31 31 38 37 35 33 32 32 31 30 29 31 33 34 30 28 29 30 34 35 36 36 36 36 35 32 28 25 23
38 38 37 36 34 34 35 34 34 33 31 31 30 31 31 30 35 35 33 32 29 29 29 30 29 29 32 35 32 30 26 29 30 29 29 31 33 32 33 32 28 24 24
36 35 35 35 34 35 34 34 32 31 29 28 28 28 28 29 32 35 35 32 32 31 32 30 29 32 32 32 35 32 31 33 31 30 28 28 28 28 29 29 27 25 23
33 33 32 33 33 33 32 32 31 29 28 27 26 26 28 28 32 35 36 35 35 33 33 32 31 32 33 34 33 34 35 34 32 30 30 29 28 27 26 26 26 25 25
30 29 30 32 32 32 31 30 31 30 29 27 27 27 27 27 29 34 36 36 36 33 34 33 32 32 33 32 34 35 33 32 30 29 28 27 26 26 25 24 23 22 21
29 29 30 30 31 31 32 32 31 30 29 28 27 27 27 27 28 30 32 34 34 34 33 33 33 32 32 32 30 32 30 29 27 26 25 25 25 23 21 22 19 19 17
31 30 31 31 31 31 31 31 31 32 31 29 29 30 28 28 29 32 32 31 32 32 28 26 27 28 27 26 25 25 25 24 23 23 21 20 20 20 18 19 17 15 12
29 29 30 31 31 30 29 29 33 33 33 34 35 34 31 33 33 33 32 32 32 32 24 25 25 26 25 25 23 22 21 18 19 18 17 17 15 15 15 15 14 12 10
30 28 27 28 28 27 27 28 26 30 31 31 31 31 30 30 32 33 33 33 32 30 24 23 25 24 23 21 20 19 17 16 13 14 14 13 13 12 10 11 11 10 8
25 26 28 28 28 28 27 27 29 28 26 26 29 29 29 30 30 31 32 28 22 20 21 20 20 19 18 17 15 14 13 12 12 12 11 10 9 8 8 8 8 6 6
23 22 23 24 25 25 25 26 27 27 25 23 23 23 23 27 24 23 23 22 21 17 15 15 16 15 13 12 11 10 9 9 9 8 8 6 6 6 6 6 5 3 3
17 16 19 20 21 21 21 22 22 22 21 21 23 22 18 20 20 16 12 13 14 14 12 12 9 8 8 8 7 6 5 4 5 5 5 5 5 5 4 3 3 3 4
15 14 14 17 18 18 19 19 19 19 19 18 18 14 13 18 15 14 11 10 10 10 8 8 6 5 5 4 4 4 4 6 5 4 3 3 3 2 3 3 3 2 1
12 11 12 12 13 12 12 13 13 14 14 13 11 12 17 13 11 11 9 8 6 6 6 6 5 4 3 3 3 4 3 3 3 2 2 0 0 1 0 1 1 1 1
11 10 9 8 8 7 9 9 10 10 10 10 10 10 9 9 7 7 6 5 3 2 2 0 2 1 1 -1 2 3 3 3 3 3 1 1 0 1 0 0 0 -2 -1
9 8 7 6 6 7 7 6 5 2 6 6 6 6 7 6 5 4 4 4 2 1 -0 -2 -2 -1 -0 -1 -0 -1 -1 -0 1 -0 -1 -0 -0 -1 -2 -1 -1 -2 -2
5 5 4 4 4 4 5 5 5 4 4 4 5 4 4 3 2 2 2 0 -1 -1 -1 -3 -3 -3 -3 -5 -3 -2 -2 -1 -1 -3 -3 -3 -3 -2 -3 -3 -2 -2 -4
3 3 3 3 3 3 3 3 3 3 2 3 3 2 2 2 1 1 0 -1 -3 -3 -3 -2 -2 -4 -3 -3 -3 -3 -4 -2 -5 -6 -3 -2 -3 -3 -3 -5 -6 -5 -5
MSLP
1013.80 1014.25 1014.80 1015.13 1015.65 1016.23 1016.77 1017.41 1018.16 1019.02 1019.66 1020.49 1021.21 1021.94 1022.35 1022.65 1023.12 1023.67 1024.56 1025.27 1025.93 1026.71 1027.35 1027.93 1028.65 1029.34 1029.99 1030.58 1031.23 1031.24 1031.47 1031.60 1031.52 1032.10 1032.44 1032.79 1032.96 1032.73 1032.61 1032.69 1032.69 1032.48 1032.34
1013.16 1013.71 1014.25 1014.89 1015.43 1015.94 1016.54 1017.14 1017.89 1018.63 1019.39 1020.09 1020.83 1021.57 1022.14 1022.42 1022.54 1023.08 1023.69 1024.55 1025.18 1026.01 1026.81 1027.67 1028.54 1029.36 1029.98 1030.70 1031.07 1031.39 1031.62 1031.87 1031.59 1031.83 1032.23 1032.54 1032.44 1032.23 1032.32 1032.39 1032.29 1032.35 1032.20
1012.81 1013.34 1013.83 1014.26 1014.92 1015.49 1016.09 1016.74 1017.51 1018.30 1019.02 1019.80 1020.27 1020.92 1021.49 1021.93 1022.35 1022.83 1023.32 1024.11 1025.14 1025.90 1026.64 1027.41 1028.43 1029.24 1029.85 1030.19 1030.84 1031.10 1031.54 1031.93 1031.94 1032.06 1032.07 1032.30 1032.20 1032.03 1031.92 1031.89 1031.74 1031.70 1031.48
1012.42 1012.84 1013.10 1013.52 1014.16 1015.01 1015.67 1016.49 1017.24 1018.02 1018.72 1019.39 1019.82 1020.38 1020.88 1021.57 1022.24 1022.82 1023.67 1024.12 1024.87 1025.75 1026.64 1027.44 1028.23 1028.94 1029.40 1029.81 1030.46 1030.90 1031.44 1031.74 1032.02 1032.05 1031.89 1031.81 1031.80 1031.64 1032.02 1031.74 1031.28 1030.83 1030.63
1011.90 1012.08 1012.30 1013.06 1013.75 1014.56 1015.29 1016.13 1017.01 1017.86 1018.51 1019.19 1019.84 1020.48 1020.96 1021.47 1021.92 1022.60 1023.50 1024.58 1025.07 1026.17 1027.09 1027.74 1028.44 1028.70 1029.02 1029.66 1030.02 1030.44 1031.00 1031.42 1031.67 1031.70 1031.57 1031.52 1031.23 1031.41 1031.49 1031.29 1031.08 1030.70 1030.14
1011.00 1011.24 1011.89 1012.58 1013.34 1014.06 1014.99 1015.76 1016.58 1017.33 1018.10 1018.91 1019.50 1020.07 1020.62 1021.18 1021.61 1022.12 1022.80 1024.15 1024.85 1025.74 1026.93 1028.04 1028.74 1028.73 1029.00 1029.39 1029.79 1030.17 1030.59 1030.85 1030.86 1031.02 1031.04 1030.96 1030.74 1030.85 1031.04 1031.03 1030.92 1030.55 1029.54
1010.42 1010.97 1011.56 1012.23 1012.96 1013.77 1014.49 1015.26 1016.05 1016.86 1017.69 1018.34 1019.08 1019.69 1020.18 1020.80 1021.41 1021.95 1022.63 1023.75 1024.70 1025.22 1026.31 1027.49 1027.89 1028.14 1028.74 1029.14 1029.50 1029.76 1030.08 1030.22 1030.17 1030.50 1030.51 1030.33 1030.24 1030.26 1030.46 1030.42 1030.30 1030.02 1029.36
1010.25 1010.81 1011.48 1012.17 1012.85 1013.58 1014.42 1015.03 1015.84 1016.51 1017.09 1017.71 1018.49 1019.29 1019.78 1020.42 1021.17 1021.84 1022.56 1023.36 1024.51 1024.86 1025.49 1026.61 1026.81 1027.53 1028.26 1028.90 1029.31 1029.47 1029.51 1029.53 1029.55 1029.66 1029.63 1029.69 1029.75 1029.78 1030.01 1030.04 1029.86 1029.35 1028.98
1009.60 1010.18 1010.88 1011.57 1012.50 1013.39 1014.18 1014.95 1015.69 1016.38 1017.08 1017.65 1018.34 1019.06 1019.73 1020.33 1020.89 1021.79 1022.71 1023.34 1024.26 1024.94 1025.38 1026.10 1026.49 1027.25 1027.48 1028.06 1028.70 1028.85 1028.95 1028.90 1029.19 1029.16 1029.03 1028.94 1029.00 1029.03 1029.04 1029.04 1028.80 1028.67 1028.10
1009.49 1010.08 1010.73 1011.29 1011.84 1012.49 1013.35 1014.32 1015.23 1016.10 1016.89 1017.61 1018.47 1019.09 1019.81 1020.32 1021.10 1021.79 1022.76 1023.28 1024.26 1024.85 1025.11 1025.44 1026.18 1026.63 1026.99 1027.22 1027.47 1027.88 1028.12 1028.14 1028.60 1028.75 1028.83 1028.62 1028.57 1028.46 1028.31 1028.35 1028.38 1028.14 1027.77
1009.56 1010.25 1010.96 1011.57 1012.29 1012.91 1013.43 1014.14 1015.27 1016.28 1017.18 1017.86 1018.50 1019.50 1020.02 1020.58 1021.10 1021.50 1022.18 1022.96 1023.58 1024.32 1024.59 1025.08 1025.33 1025.62 1026.14 1026.71 1026.60 1026.85 1026.84 1027.33 1027.70 1027.94 1028.02 1028.07 1028.13 1028.07 1028.00 1028.02 1028.19 1028.09 1027.73
1010.13 1010.59 1011.30 1011.86 1012.62 1013.37 1014.20 1014.61 1015.37 1016.34 1017.26 1018.11 1018.81 1019.71 1020.38 1020.78 1021.02 1021.28 1021.57 1022.27 1022.79 1023.26 1023.62 1023.99 1024.38 1024.92 1025.18 1025.39 1025.84 1026.06 1026.19 1026.46 1026.82 1027.02 1027.07 1027.11 1027.16 1027.53 1027.71 1027.96 1027.98 1028.00 1027.90
1010.81 1011.13 1011.66 1012.28 1012.86 1013.61 1014.26 1014.74 1015.68 1016.39 1017.05 1017.73 1018.41 1019.22 1019.84 1020.49 1020.92 1021.05 1021.33 1021.76 1022.10 1022.57 1022.82 1023.20 1023.75 1024.14 1024.53 1024.81 1024.95 1025.06 1025.49 1025.91 1026.26 1026.45 1026.59 1026.76 1027.21 1027.48 1027.75 1027.79 1027.86 1027.95 1027.97
1011.39 1011.93 1012.21 1012.46 1013.23 1013.70 1014.10 1014.79 1015.54 1015.75 1016.49 1017.16 1017.84 1018.42 1019.34 1020.13 1020.34 1020.62 1020.98 1021.57 1021.79 1022.15 1022.59 1022.77 1023.05 1023.52 1024.05 1024.23 1024.56 1024.89 1025.40 1025.90 1026.30 1026.54 1026.76 1027.11 1027.23 1027.50 1027.51 1027.55 1027.64 1027.67 1027.51
1011.89 1012.39 1012.84 1013.22 1013.61 1013.78 1014.57 1015.18 1015.47 1016.04 1016.25 1016.66 1017.24 1017.87 1018.65 1019.30 1019.46 1019.90 1020.38 1020.93 1021.41 1021.82 1022.37 1022.82 1023.10 1023.38 1023.89 1024.41 1024.91 1025.25 1025.79 1026.17 1026.54 1026.81 1027.16 1027.27 1027.34 1027.43 1027.50 1027.63 1027.72 1027.77 1027.78
1012.51 1012.82 1013.25 1013.76 1014.43 1014.82 1015.17 1015.65 1016.01 1016.35 1016.80 1016.88 1017.26 1017.63 1018.44 1018.70 1019.23 1019.74 1020.12 1020.60 1021.13 1021.74 1022.54 1022.74 1023.11 1023.37 1023.97 1024.44 1024.93 1025.43 1025.91 1026.51 1026.79 1027.20 1027.43 1027.55 1027.61 1027.67 1027.66 1027.85 1028.01 1028.01 1027.89
1013.47 1013.54 1014.16 1014.56 1014.87 1015.54 1015.62 1015.97 1016.48 1016.97 1017.45 1017.67 1017.78 1017.94 1018.34 1018.77 1019.14 1019.56 1019.89 1020.39 1020.96 1021.65 1022.21 1022.89 1023.08 1023.49 1023.99 1024.73 1025.09 1025.50 1026.09 1026.71 1027.22 1027.43 1027.63 1027.73 1027.83 1027.91 1028.23 1028.10 1028.05 1028.09 1027.98
1014.45 1014.48 1014.75 1015.24 1015.62 1015.99 1016.32 1016.52 1016.78 1016.99 1017.48 1018.26 1018.61 1018.72 1018.81 1019.04 1019.35 1019.70 1020.01 1020.77 1021.58 1022.20 1022.54 1023.08 1023.40 1023.98 1024.49 1024.90 1025.48 1025.98 1026.49 1027.02 1027.36 1027.61 1027.76 1027.88 1028.17 1028.29 1028.23 1028.24 1028.24 1028.20 1028.09
1015.55 1015.66 1015.88 1016.14 1016.57 1016.80 1016.96 1017.14 1017.30 1017.42 1017.96 1018.85 1019.40 1019.55 1019.65 1019.96 1020.40 1020.68 1021.09 1021.29 1021.90 1022.49 1023.17 1023.64 1024.03 1024.45 1024.96 1025.49 1025.92 1026.42 1026.84 1027.14 1027.37 1027.66 1027.86 1028.15 1028.22 1028.35 1028.25 1028.30 1028.32 1028.28 1028.27
1016.61 1016.78 1016.91 1017.18 1017.31 1017.53 1017.72 1017.91 1018.25 1018.35 1018.65 1019.18 1019.75 1020.31 1020.57 1020.84 1021.26 1021.78 1022.32 1022.62 1022.85 1023.29 1023.94 1024.22 1024.73 1025.16 1025.54 1025.88 1026.23 1026.61 1027.02 1027.39 1027.54 1027.72 1027.84 1027.95 1028.13 1028.31 1028.14 1028.12 1028.19 1028.05 1027.86
1017.64 1017.91 1018.10 1018.16 1018.40 1018.51 1018.71 1018.89 1019.23 1019.50 1019.86 1020.31 1021.05 1021.55 1021.58 1021.54 1022.16 1022.64 1023.15 1023.68 1023.79 1024.16 1024.47 1024.66 1025.03 1025.39 1025.75 1026.14 1026.47 1026.70 1026.89 1026.85 1027.13 1027.34 1027.62 1027.83 1028.00 1028.09 1028.07 1027.96 1027.94 1027.91 1027.80
1018.90 1019.21 1019.42 1019.66 1019.72 1019.81 1020.04 1020.14 1020.39 1020.66 1021.14 1021.51 1021.94 1022.22 1021.98 1022.55 1022.93 1023.30 1023.64 1024.34 1024.59 1024.81 1024.99 1025.15 1025.37 1025.65 1025.97 1026.15 1026.34 1026.47 1026.65 1026.77 1026.89 1027.10 1027.26 1027.54 1027.65 1027.69 1027.77 1027.74 1027.71 1027.55 1027.55
1019.98 1020.28 1020.59 1020.90 1020.93 1020.98 1021.13 1021.40 1021.46 1021.70 1022.12 1022.39 1022.61 1022.91 1023.09 1023.19 1023.50 1023.91 1024.30 1024.81 1024.95 1025.09 1025.35 1025.66 1025.65 1025.86 1026.10 1026.42 1026.35 1026.26 1026.26 1026.24 1026.37 1026.60 1026.88 1027.04 1027.12 1027.14 1027.31 1027.31 1027.23 1027.39 1027.26
1021.10 1021.29 1021.58 1021.86 1022.05 1022.12 1022.20 1022.35 1022.63 1022.81 1023.08 1023.34 1023.60 1023.55 1023.59 1023.80 1024.04 1024.38 1024.72 1024.77 1024.94 1025.09 1025.33 1025.53 1025.66 1025.64 1025.64 1025.88 1025.98 1026.19 1026.28 1026.33 1026.35 1026.47 1026.59 1026.60 1026.64 1026.76 1026.91 1026.91 1026.98 1026.97 1026.94
1022.45 1022.48 1022.52 1022.73 1022.85 1023.06 1023.25 1023.38 1023.46 1023.59 1023.86 1024.02 1023.97 1024.09 1024.18 1024.42 1024.56 1024.63 1024.70 1024.88 1025.00 1025.00 1024.96 1025.16 1025.28 1025.23 1025.36 1025.53 1025.47 1025.52 1025.58 1025.68 1025.88 1026.07 1026.22 1026.30 1026.25 1026.27 1026.40 1026.44 1026.46 1026.46 1026.64
1023.30 1023.41 1023.60 1023.69 1023.79 1023.87 1023.91 1024.02 1024.16 1024.26 1024.26 1024.19 1024.29 1024.36 1024.43 1024.42 1024.39 1024.36 1024.38 1024.51 1024.54 1024.50 1024.50 1024.46 1024.44 1024.55 1024.54 1024.57 1024.62 1024.61 1024.77 1024.81 1025.11 1025.36 1025.44 1025.53 1025.63 1025.62 1025.67 1025.80 1025.92 1026.04 1026.20
Wind_Speed
15 15 15 14 14 12 11 11 11 11 11 12 12 11 11 11 14 12 12 13 13 12 10 10 9 8 6 5 3 3 2 2 3 3 2 3 5 5 4 5 6 7 7
15 16 16 14 14 14 11 12 11 11 12 12 12 11 11 12 14 14 15 13 14 14 13 12 11 6 7 6 4 5 4 4 2 4 2 3 5 5 6 7 6 6 9
14 15 16 16 15 15 13 12 14 13 12 12 13 14 13 13 13 14 14 14 14 13 14 13 13 10 7 6 6 6 5 3 3 3 2 2 3 4 6 7 8 9 8
14 16 16 16 16 15 12 12 12 14 13 13 14 15 14 13 11 11 12 13 13 12 12 11 11 9 9 8 7 7 5 5 5 4 5 5 5 4 5 7 8 7 9
16 16 16 13 14 13 12 11 11 12 12 12 12 11 11 11 9 12 12 12 13 12 10 9 8 8 10 9 7 8 8 7 5 6 6 6 7 7 8 6 8 10 10
16 16 13 13 12 12 11 12 12 12 12 11 13 13 13 9 19 22 16 12 11 12 11 8 6 7 10 14 14 10 10 8 8 6 7 9 10 8 7 8 9 9 10
14 12 12 12 13 12 12 13 13 13 13 14 13 13 13 12 23 23 19 10 11 11 11 9 6 5 8 8 13 16 15 16 16 7 10 10 10 9 10 11 11 11 11
12 11 10 11 12 11 12 12 12 11 13 14 14 13 12 10 23 22 19 11 9 11 10 9 9 8 9 9 8 9 9 10 12 10 12 11 12 10 10 10 12 13 10
13 12 12 12 12 11 12 11 10 10 10 11 11 12 12 10 23 22 17 10 9 10 8 8 8 9 12 16 9 9 10 10 11 19 21 22 22 22 18 9 10 8 10
9 9 9 11 12 13 13 12 10 9 9 8 8 9 10 11 22 22 16 7 8 7 7 8 14 12 15 18 11 9 11 11 8 8 9 12 14 12 17 12 8 10 10
6 7 8 8 9 9 10 9 10 9 9 9 9 7 8 11 15 24 23 9 8 8 7 7 7 18 18 19 20 11 13 8 8 8 8 8 8 8 8 7 8 7 9
7 7 7 8 7 8 10 10 10 11 10 9 9 7 5 7 14 23 25 19 15 8 8 6 6 16 18 19 16 19 20 16 8 7 7 8 6 4 5 6 8 8 8
7 7 8 8 8 9 10 10 9 9 8 8 8 8 7 6 7 19 23 23 20 10 5 7 12 15 16 14 19 18 13 6 6 7 7 5 3 4 6 6 6 7 9
8 8 8 9 9 8 7 7 8 8 8 8 8 7 7 7 8 8 9 10 15 10 9 7 9 12 13 10 4 8 2 3 3 5 4 4 4 4 6 6 7 8 9
8 7 7 7 7 8 6 5 5 4 7 7 7 7 8 8 9 12 10 7 7 8 4 2 3 4 5 5 4 3 3 3 3 3 3 4 5 6 6 6 6 7 8
7 5 5 5 5 5 6 5 6 6 8 9 11 9 2 3 10 16 17 16 14 12 3 5 7 6 6 5 5 5 4 3 2 1 3 3 4 5 6 5 6 6 8
6 6 5 5 5 5 5 6 7 8 11 8 7 7 6 6 8 10 12 12 12 11 6 5 6 5 4 5 5 4 4 2 2 2 3 3 3 4 4 5 5 5 7
6 6 5 4 4 4 4 5 5 7 6 4 6 6 6 8 7 8 10 12 4 3 3 4 4 4 5 5 4 4 3 3 3 3 3 2 2 3 4 4 4 5 6
5 5 4 4 3 4 4 4 4 5 6 5 4 6 4 16 15 14 8 3 4 3 3 3 3 3 3 3 3 3 3 3 3 3 3 3 3 3 4 4 4 5 6
7 9 6 4 4 4 3 3 3 4 5 5 4 4 3 2 2 2 3 2 1 2 2 2 3 3 3 4 4 4 4 4 4 4 4 3 4 4 4 4 4 5 5
5 6 6 5 5 4 3 3 3 2 3 3 3 2 4 1 2 2 1 0 1 2 3 3 4 4 4 4 3 4 4 4 4 4 4 4 4 4 4 4 5 5 5
6 6 6 6 4 5 5 4 4 3 3 3 2 1 2 2 1 1 1 1 1 0 0 1 2 3 4 5 5 5 5 5 5 5 5 4 4 5 4 5 5 5 5
6 6 6 5 5 5 5 5 4 4 3 2 2 2 1 1 1 1 1 1 2 2 2 2 3 3 3 3 4 5 6 6 5 5 5 5 5 5 5 6 5 5 5
7 7 6 5 4 4 4 4 4 4 3 2 1 1 1 1 2 3 3 2 2 3 3 3 4 6 4 5 5 5 6 5 4 5 7 6 6 5 6 6 6 7 6
6 6 6 5 5 5 3 3 3 3 2 2 2 2 2 3 4 4 4 3 3 4 5 5 5 7 9 10 9 9 8 10 9 7 6 7 8 8 7 6 6 6 6
6 6 5 4 4 3 3 3 2 2 3 3 3 3 4 4 5 5 5 5 5 6 7 6 8 11 11 10 11 12 11 12 10 10 8 7 8 8 7 8 8 6 7
Wind_Direction
210 210 205 197 195 185 182 180 179 173 162 166 165 169 171 167 168 160 159 159 157 152 151 146 135 133 119 105 127 135 160 216 219 149 220 201 245 257 268 281 298 302 298
205 206 206 200 198 190 184 183 173 171 171 169 165 168 167 167 168 169 159 167 162 161 157 150 146 138 131 138 161 172 190 199 197 221 202 236 252 287 291 292 291 288 285
203 203 204 204 200 200 191 182 183 177 173 166 166 171 171 175 173 171 166 163 166 164 162 159 155 151 149 160 184 181 185 185 207 226 243 234 277 280 287 279 279 279 278
205 205 206 202 198 197 184 181 181 182 174 177 180 179 175 173 171 166 169 165 163 164 163 159 156 162 166 174 186 186 182 190 206 226 243 259 264 285 286 287 288 280 293
208 209 207 197 194 190 179 175 175 178 181 183 178 180 174 175 170 161 163 165 160 158 159 158 160 172 178 191 180 190 189 200 210 227 245 255 262 266 266 286 288 293 292
208 210 200 191 184 180 173 170 172 178 178 176 182 180 177 180 177 171 163 165 159 157 162 163 179 169 206 212 212 206 202 196 213 222 243 247 260 263 269 276 283 291 299
208 203 196 185 182 181 172 170 177 180 176 183 183 180 181 177 178 174 164 160 164 160 156 171 167 182 203 215 224 228 227 229 235 231 246 247 264 264 273 275 273 274 278
204 201 190 185 183 175 175 179 179 179 182 183 184 184 176 174 177 173 162 154 166 164 158 175 171 189 201 199 211 231 233 233 236 232 237 248 256 267 267 273 278 278 279
199 197 188 183 178 174 179 178 176 175 180 185 181 177 173 166 171 171 166 157 166 175 166 182 180 209 207 208 214 230 238 242 246 250 254 262 268 270 265 266 261 250 270
200 198 181 176 174 175 173 173 172 172 172 164 163 172 161 157 177 176 171 162 167 181 181 198 203 204 218 219 218 218 243 244 234 238 252 264 268 269 271 264 265 262 271
145 144 157 169 168 169 157 153 148 148 142 143 141 144 155 169 182 184 184 178 186 186 198 208 210 221 219 225 232 230 238 249 248 247 245 248 248 255 264 261 267 267 274
132 136 142 141 140 144 142 141 142 142 143 146 141 150 168 175 188 192 194 196 197 195 210 212 197 210 224 230 237 240 245 246 240 241 246 255 260 263 262 264 273 274 272
113 118 122 125 129 140 141 140 145 150 150 152 166 172 179 182 196 202 204 209 215 218 209 202 202 217 225 234 241 243 245 246 248 252 265 282 295 297 307 292 283 285 284
109 114 125 128 137 141 139 150 157 159 163 165 170 173 175 189 195 197 205 219 230 220 224 231 220 214 216 221 217 241 219 203 243 259 272 282 295 287 297 303 303 309 304
116 120 126 130 136 129 132 154 154 166 176 168 175 173 178 197 208 197 196 197 207 215 134 125 158 178 171 168 161 183 189 196 232 251 262 283 291 302 303 314 310 310 300
109 111 118 125 124 128 120 91 109 141 177 180 180 178 157 200 187 203 211 219 220 217 175 206 205 204 208 206 203 191 187 182 179 220 270 277 285 294 301 310 307 297 297
120 108 92 107 125 135 132 134 123 103 92 93 116 138 154 167 191 201 210 209 205 202 207 216 220 208 194 188 182 182 183 167 135 219 244 253 268 283 291 292 294 291 291
92 89 116 122 130 142 150 144 151 153 140 109 93 106 134 148 158 177 178 129 115 78 145 184 181 174 174 174 172 179 175 176 203 210 216 219 238 261 270 272 279 284 289
79 77 83 93 99 123 130 132 130 137 138 128 120 85 39 102 87 79 90 122 155 154 148 165 164 163 164 167 163 170 183 193 186 186 195 206 221 242 251 258 266 270 284
76 70 72 93 106 99 105 118 125 130 139 149 156 137 116 110 127 68 53 59 89 110 154 158 152 157 171 180 178 176 181 184 189 198 211 215 230 237 247 250 257 272 271
70 67 66 73 63 68 80 88 98 122 138 135 114 76 79 104 115 87 94 154 166 174 180 180 173 178 179 179 185 189 201 203 202 209 217 218 219 230 232 251 261 254 261
66 60 55 59 60 60 56 57 59 71 89 123 106 26 128 86 136 196 208 225 198 264 5 204 195 196 192 192 196 204 211 216 211 213 218 218 223 226 231 241 248 252 258
78 81 74 66 68 73 66 54 59 61 70 76 97 125 70 64 58 286 268 246 207 213 198 216 230 222 215 219 223 226 226 222 219 211 215 222 222 232 230 242 239 242 246
67 70 74 67 54 63 58 54 54 48 40 42 354 338 303 282 260 255 250 246 239 238 234 228 235 239 238 229 223 226 233 241 230 222 216 227 231 227 237 238 239 241 251
63 66 60 52 48 49 55 48 40 23 1 325 310 291 286 272 263 260 259 248 248 249 243 236 239 245 243 238 238 234 234 238 228 216 213 224 235 235 231 234 239 242 246
56 58 56 50 48 37 25 3 337 312 301 295 280 268 266 263 261 260 255 246 245 245 245 242 241 239 245 246 243 238 233 232 228 224 219 222 227 230 226 227 229 235 241